Tracking 35280 objects as of 7-Sep-2026
HD Live streaming from Space Station
objects crossing your sky now

JIELONG 3 DEB

Track JIELONG 3 DEB now!
10-day predictions


NORAD ID: 62575
Int'l Code: 2025-007A
Launch date: January 13, 2025
Source: People's Republic of China (PRC)
Launch site: Yellow Sea Launch Area, China (YSLA)

Note: This is SATELLITE DEBRIS
Your satellite tracking list
Your tracking list is empty




NASA's NSSDC Master Catalog

Two Line Element Set (TLE):
1 62575U 25007A   26250.28814978  .00000725  00000-0  13241-3 0  9999
2 62575  54.9830 188.7960 0010983 196.3846 163.6801 14.76810650 88901
Source of the keplerian elements: AFSPC